Palacios, TX

1:39 PM CST on January 18, 2017 (GMT -0600)
Palacios Municipal

Weather History for KPSX - September, 2012

Change the Weather History Date:

Sunday, September 9, 2012

  Actual Average Record
Temperature  
Mean Temperature 79 °F -  
Max Temperature 91 °F 89 °F 95 °F (1951)
Min Temperature 68 °F 72 °F 59 °F (1957)
Cooling Degree Days 14    
Growing Degree Days 29 (Base 50)    
Moisture  
Dew Point 62 °F    
Average Humidity 61    
Maximum Humidity 87    
Minimum Humidity 29    
Precipitation  
Precipitation 0.00 in - - ()
Sea Level Pressure  
Sea Level Pressure 30.04 in    
Wind  
Wind Speed 7 mph (NE)    
Max Wind Speed 15 mph    
Max Gust Speed 18 mph    
Visibility 10 miles    
Events      
Averages and records for this station are not official NWS values.
T = Trace of Precipitation, MM = Missing Value Source: NWS Daily Summary

Daily Weather History Graph

Daily Weather History Graph

Search for Another Location

Airport or City:

Trip Planner

Search our weather history database for the weather conditions in past years. The results will help you decide how hot, cold, wet, or windy it might be!

Date:

Astronomy

Sep. 09, 2012 Rise Set
Actual Time 7:07 AM CDT 7:36 PM CDT
Civil Twilight 6:43 AM CDT 8:00 PM CDT
Nautical Twilight 6:15 AM CDT 8:28 PM CDT
Astronomical Twilight 5:47 AM CDT 8:56 PM CDT
Moon 12:58 AM CDT (9/9) 3:02 PM CDT (9/9)
Length of Visible Light 13h 16m
Length of Day
12h 29m
Last Quarter, 39% of the Moon is Illuminated
Sep 9
Last Quarter
Sep 15
New
Sep 22
First Quarter
Sep 29
Full
Oct 8
Last Quarter

Hourly Weather History & Observations

Time (CDT) Temp. Heat Index Dew Point Humidity Pressure Visibility Wind Dir Wind Speed Gust Speed Precip Events Conditions
12:53 AM 73.0 °F - 66.9 °F 81% 30.01 in 10.0 mi NNE 5.8 mph - N/A   Clear
1:53 AM 72.0 °F - 66.0 °F 81% 30.01 in 10.0 mi NNE 4.6 mph - N/A   Clear
2:53 AM 71.1 °F - 66.0 °F 84% 30.01 in 10.0 mi North 5.8 mph - N/A   Clear
3:53 AM 70.0 °F - 66.0 °F 87% 30.01 in 9.0 mi North 4.6 mph - N/A   Clear
4:53 AM 70.0 °F - 66.0 °F 87% 30.01 in 9.0 mi North 9.2 mph - N/A   Clear
5:53 AM 69.1 °F - 64.9 °F 87% 30.04 in 8.0 mi North 5.8 mph - N/A   Clear
6:53 AM 68.0 °F - 64.0 °F 87% 30.05 in 8.0 mi North 5.8 mph - N/A   Clear
7:53 AM 69.1 °F - 64.9 °F 87% 30.06 in 8.0 mi North 5.8 mph - N/A   Clear
8:53 AM 75.0 °F - 66.9 °F 76% 30.08 in 10.0 mi NNE 6.9 mph - N/A   Clear
9:53 AM 81.0 °F 81.9 °F 62.1 °F 52% 30.09 in 10.0 mi NE 11.5 mph - N/A   Clear
10:53 AM 84.0 °F 83.8 °F 59.0 °F 43% 30.11 in 10.0 mi NE 10.4 mph - N/A   Clear
11:53 AM 86.0 °F 84.7 °F 55.9 °F 36% 30.09 in 10.0 mi NE 15.0 mph 18.4 mph N/A   Clear
12:53 PM 87.1 °F 85.7 °F 55.9 °F 35% 30.07 in 10.0 mi NNE 12.7 mph 18.4 mph N/A   Clear
1:53 PM 88.0 °F 86.5 °F 55.9 °F 34% 30.06 in 10.0 mi North 10.4 mph - N/A   Clear
2:53 PM 90.0 °F 88.1 °F 55.9 °F 31% 30.03 in 10.0 mi NNE 11.5 mph - N/A   Clear
3:53 PM 90.0 °F 87.7 °F 54.0 °F 29% 30.01 in 10.0 mi NE 10.4 mph 17.3 mph N/A   Clear
4:53 PM 90.0 °F 87.9 °F 55.0 °F 30% 30.00 in 10.0 mi NE 4.6 mph - N/A   Clear
5:53 PM 87.1 °F 85.7 °F 55.9 °F 35% 30.00 in 10.0 mi ENE 5.8 mph - N/A   Clear
6:53 PM 82.0 °F 83.0 °F 62.1 °F 51% 30.00 in 10.0 mi ESE 10.4 mph - N/A   Clear
7:53 PM 79.0 °F - 63.0 °F 58% 30.01 in 10.0 mi SE 6.9 mph - N/A   Clear
8:53 PM 77.0 °F - 64.9 °F 66% 30.02 in 10.0 mi SE 5.8 mph - N/A   Clear
9:53 PM 75.9 °F - 64.9 °F 69% 30.04 in 10.0 mi ESE 3.5 mph - N/A   Clear
10:53 PM 75.0 °F - 64.9 °F 71% 30.04 in 10.0 mi SE 5.8 mph - N/A   Clear
11:53 PM 73.9 °F - 64.9 °F 73% 30.04 in 10.0 mi ESE 4.6 mph - N/A   Clear